Regional Weather Roundup
Issued by NWS

Home | Current Version | Previous Version | Text Only | Print | Product List | Glossary Off
Versions: 1 2 3 4 5 6 7 8 9 10 11 12 13 14 15 16 17 18 19 20 21 22 23 24 25 26 27 28 29 30 31 32 33 34 35 36 37 38 39 40 41 42 43 44 45 46 47 48 49 50

000
ASUS43 KIND 300209
RWRIN

WEATHER ROUNDUP FOR INDIANA
NATIONAL WEATHER SERVICE INDIANAPOLIS IN
1000 PM EDT THU SEP 29 2016

NOTE: "FAIR" INDICATES FEW OR NO CLOUDS BELOW 12,000 FEET WITH NO
SIGNIFICANT WEATHER AND/OR OBSTRUCTIONS TO VISIBILITY.

* - STATION DOES NOT REPORT WEATHER SUCH AS PRECIPITATION OR FOG.

+ - STATION NOT QUALITY CONTROLLED BY THE NATIONAL WEATHER SERVICE.
    USE DATA WITH CAUTION...ESPECIALLY DEWPOINT AND RELATIVE
    HUMIDITY OBSERVATIONS.

INZ001>003-010>013-019-020-300300-
NORTHWEST INDIANA

CITY           SKY/WX    TMP DP  RH WIND       PRES   REMARKS
GARY /AIRPORT/ CLOUDY    64  59  82 NE12G23   30.21S
KNOX *+        CLOUDY    61  43  51 NE10G16   30.17S
LA PORTE +     RAIN     N/A N/A N/A NE7       30.19S
MICHIGAN CITY+ RAIN      59  59 100 CALM      30.20S
MONTICELLO +   LGT RAIN  63  51  65 NE6       30.14S
RENSSELAER +   CLOUDY    61  59  94 N5        30.16S
VALPARAISO     CLOUDY    61  57  87 N8        30.19S

$$

LMZ046-743>745-300300-
SOUTHERN LAKE MICHIGAN

STATION/POSITION TIME  TEMP    WIND        PRES    WAVE
                       AIR SEA DIR/SP/G            HT
                 (UTC) (F)     (DEG/KT/KT) (MB)    (FT)
BURNS HARBOR     0140   62      50/ 18/ 21 1022.7S
MICHIGAN CITY    0140   61      20/ 20/ 21   N/A
5NW MICH CITY    0200   62 65   40/ 16/ 21   N/A     6

$$

INZ004-005-014>016-021>024-300300-
NORTH CENTRAL INDIANA

CITY           SKY/WX    TMP DP  RH WIND       PRES   REMARKS
GOSHEN         LGT RAIN  60  56  86 N12       30.16S
LOGANSPORT +   LGT RAIN  61  57  88 NE7       30.14F
PERU/GRISSOM   LGT RAIN  61  59  93 N8        30.12S
ROCHESTER +    DRIZZLE   63  63 100 N8        30.15F
SOUTH BEND     LGT RAIN  58  57  97 NE12      30.19F
WARSAW +       LGT RAIN  59  59 100 N9        30.15F

$$

INZ006>009-017-018-025>027-300300-
NORTHEAST INDIANA

CITY           SKY/WX    TMP DP  RH WIND       PRES   REMARKS
ANGOLA *+        N/A     59  48  67 NE8       30.15F
AUBURN +       CLOUDY    61  57  88 NE7       30.15R
FORT WAYNE     LGT RAIN  61  59  93 N10       30.12F FOG
HUNTINGTON +   CLOUDY    60  59  96 NE5       30.12F
KENDALLVILLE + DRIZZLE   59  58  97 NE9       30.14F

$$

INZ028-029-035-036-043>045-051>053-300300-
WEST CENTRAL INDIANA

CITY           SKY/WX    TMP DP  RH WIND       PRES   REMARKS
CRAWFORDSVL +  CLOUDY    59  51  75 N5        30.12S
GREENCASTLE +  CLOUDY    59  54  82 N6        30.12R
LAFAYETTE      CLOUDY    62  53  72 N7        30.13R
TERRE HAUTE    CLOUDY    56  53  90 N3        30.12R

$$

INZ030>032-037>040-046>048-054>057-064-065-300300-
CENTRAL INDIANA

CITY           SKY/WX    TMP DP  RH WIND       PRES   REMARKS
COLUMBUS       CLOUDY    57  57 100 CALM      30.10S
FISHERS *+     CLOUDY    59  57  94 CALM      30.11S
FRANKFORT +    CLOUDY    63  56  80 NE3       30.14S
GREENWOOD *+   PTCLDY    63  55  77 NE5       30.11R
INDIANAPOLIS   MOCLDY    63  53  70 NE9       30.10R
-EAGLE CREEK   CLOUDY    64  53  67 NE8       30.10S
KOKOMO *+      CLOUDY    61  57  88 N12       30.14R
MARION +       CLOUDY    60  56  89 N8        30.13S
MT COMFORT *+  MOCLDY    59  55  88 NE5       30.11S
SHELBYVILLE    CLOUDY    61  53  75 NE5       30.09S
ZIONSVILLE +   CLOUDY    61  54  77 NE6       30.13R

$$

INZ033-034-041-042-049-050-058-059-300300-
EAST CENTRAL INDIANA

CITY           SKY/WX    TMP DP  RH WIND       PRES   REMARKS
MUNCIE         MOCLDY    60  57  89 N7        30.10S

$$

INZ060-061-067>069-081>083-085>088-300300-
SOUTHWEST INDIANA

CITY           SKY/WX    TMP DP  RH WIND       PRES   REMARKS
EVANSVILLE     CLOUDY    60  53  77 W3        30.12R
HUNTINGBURG *+   N/A     55  52  88 CALM      30.11S
WASHINGTON +   CLOUDY    56  56  99 MISG      30.11S

$$

INZ062-063-066-070>080-084-089>092-300300-
SOUTH CENTRAL AND SOUTHEAST INDIANA

CITY           SKY/WX    TMP DP  RH WIND       PRES   REMARKS
BLOOMINGTON    CLOUDY    56  53  90 CALM      30.10S
MADISON *+     CLOUDY    55  54  94 CALM      30.10S
NORTH VERNON + CLOUDY   N/A N/A N/A CALM      30.10S
SEYMOUR +      CLOUDY    59  54  82 CALM      30.09S

$$





USA.gov is the U.S. government's official web portal to all federal, state and local government web resources and services.